Location: Bun Machan
(52.1403°N, 7.3744°W)
Time: 18:01:31
(UTC+00:00)

IRS-1D - Pass Details

Date: 14 July 2020
Orbit: 739 x 817 km, 98.6° (Epoch: 13 August)

Event Time Altitude Azimuth Distance (km) Brightness Sun altitude
Rises 02:17:39 0° 19° (NNE) 3,202 8.8 -12.9°
Reaches altitude 10° 02:20:05 10° 27° (NNE) 2,267 7.5 -12.8°
Maximum altitude 02:24:47 42° 98° (E) 1,055 4.4 -12.5°
Drops below altitude 10° 02:29:27 10° 169° (S) 2,247 5.5 -12.1°
Enters shadow 02:29:28 10° 169° (S) 2,254 5.5 -12.1°
